Torna al catalogo

FENGYUN 1C DEB

LostPO
NORAD 32368·DEBRIS·🇨🇳 China

Lanciato May 10, 1999 da Taiyuan Satellite Launch Center

Loading…

Prossimi Passaggi (prossime 24 ore)

TLE

ObsoletoSource: Space-Track

Epoca: May 13, 2024, 06:37 UTC

1 32368U 99025CZM 24134.27636693  .00011954  00000-0  58270-2 0  9997
2 32368  97.8312 300.8313 0274143 107.3568 255.7780 14.00435745842330

Traccia FENGYUN 1C DEB in tempo reale con AllMySat

Download on the App Store